Dauntless Aviation
Airports South America Argentina
SABE
AEP

Jorge Newbery Airpark

Buenos Aires, ARGENTINA

Airport Info
Suggest Updated Information for this Airport

Location

Latitude / Longitude: 34°33'33"S / 58°24'56"W
  34°33.552'S / 58°24.936'W
  -34.5592 / -58.4156

Nearby radio navigation aids

FDO SAN FERNANDO VOR/DME. 132.7° 10.6nm from FDO to field.
OP AEROPARQUE JORGE NEWBERY NDB. 131.1° 4.3nm from OP to field.

Runway Information

Runway 13 /31

Dimensions: 6890 x 131 ft.
Surface: ASP
 
Runway 13
Runway 31
Latitude: -34.553942 -34.563844
Longitude: -58.425247 -58.407506
Elevation: 18 ft. 18 ft.
Runway true heading: 126.3 306.3
 

Instrument Procedures

  Aerodrome Chart

STARs (Standard Terminal Arrivals)

  STAR Rwy 13/16 SARGO7C KOVUK7C TENIL7C BELGRANO7C
  STAR Rwy 13/16 PAGON7C SAN ANTONIO7C ASADA7C VALOS8C
  STAR Rwy 13/16 SURBO7A KUKEN1C PAPIX1C
  STAR Rwy 31 SURBO2B SARGO7D KOVUK7D TENIL7D BELGRANO7D VALOS7D ASADA7D
  STAR Rwy 31 PAGON7D SAN ANTONIO7D

IAPs (Instrument Approach Procedures)

  VOR (DME) ILS Rwy 13
  VOR (DMS) ILS (DME) Rwy 13
  LI ILS (DME) Rwy 13
  VOR (DME) LO LI Rwy 13
  LI LO LI Rwy 13
  LI Rwy 31
  LI Rwy 31

Departure Procedures

  SID Rwy 13/31 LANDA3B VIBAM38 ATOVO38
  SID Rwy 13/31 EZEIZA8
  SID Rwy 13/31 EL PALOMAR 8
  SID Rwy 13/31 KUKEN7 SURBO7 DORVO7 LA PLAYA7
Satellite photo at:
Airport distance calculator
From:
Weather Reports

METAR

SABE

SABE 201200Z 02014KT CAVOK 15/11 Q1014
SADF
10.6nm W
SADF 201200Z 36007KT CAVOK 16/09 Q1014
SAEZ
16.2nm S
SAEZ 201200Z 03012KT CAVOK 17/11 Q1013

TAF

SABE
TAF SABE 201100Z 2012/2112 02015KT CAVOK TX22/2018Z TN14/2110Z BECMG 2017/2020 07010KT BECMG 2023/2101 14010KT 9999 BKN030 OVC090 PROB40 TEMPO 2102/2104 7000 RA BKN040 BECMG 2106/2109 18015G25KT 8000 DZ OVC008
SADF
10.6nm W
TAF SADF 201100Z 2012/2112 02010G20KT CAVOK TX23/2018Z TN13/2110Z BECMG 2014/2016 36010KT 9999 FEW020 BECMG 2023/2101 09005KT SCT020 BKN100 PROB30 TEMPO 2102/2107 16005KT 8000 SHRA BKN020 FEW040TCU BKN050 BECMG 2108/2110 18010KT 9999 FEW020 SCT100
SAEZ
16.2nm S
TAF SAEZ 201100Z 2012/2112 01010G20KT CAVOK TX23/2018Z TN12/2109Z BECMG 2018/2021 VRB05KT 9999 SCT030 BKN100 PROB30 2100/2106 8000 -RADZ BKN015 OVC070 TEMPO 2106/2112 18015G25KT 9999 SCT010 BKN040
SUCA
32.8nm NE
TAF SUCA 201130Z 2012/2112 03015KT CAVOK TX23/2018Z TN12/2110Z TEMPO 2014/2022 03015G25KT BECMG 2022/2100 SCT025 BKN080 PROB30 TEMPO 2103/2112 6000 RA SCT015 BKN060 BECMG 2110/2112 15020KT
Safelog

 

Dauntless Aviation

© 2007-2017 Dauntless Aviation, all rights reserved
Information provided via PilotNav comes from a variety of official and unofficial data sources. As errors are possible, do not use PilotNav for primary flight planning purposes. Verify any information that you receive via PilotNav with current and canonical charts and other official documents. The material in this database is subject to database copyrights held by Dauntless Aviation and may not be copied without the express permission of Dauntless Aviation - licenses for use of part of all of this data are available for purchase; enquire via the Dauntless Aviation helpdesk. A number of mechanisms and markers exist in the database to protect against and identify infringement / copyright. Automated queries against this website are stictly prohibited, and all activity is logged and analyzed.